Taurus 1
1 44530U 19059C   25152.80798761  .00009954  00000-0  18327-2 0  9991
2 44530  98.6066 291.8327 0010142  67.6704 292.5572 14.65756738302800
Duchifat 3
1 44854U 19089C   25152.81138374  .00056317  00000-0  11196-2 0  9994
2 44854  36.9444  44.5675 0005037 266.6550  93.3630 15.45907437301747
TO-108
1 44881U 19093C   25152.81413590  .00001183  00000-0  14284-3 0  9998
2 44881  97.7925 228.6261 0012366 255.4718 104.5125 14.85585914294927
FloripaSat 1
1 44885U 19093G   25152.80169842  .00008386  00000-0  70697-3 0  9991
2 44885  97.8175 240.3860 0009009 222.2277 137.8252 14.98399132295589
RS-44
1 44909U 19096E   25152.57951817  .00000020  00000-0  42242-4 0  9999
2 44909  82.5224 232.5927 0216561 314.5094  43.8484 12.79740742253664
UPMSat 2
1 46276U 20061E   25152.77394823  .00187987  00000-0  16872-2 0  9998
2 46276  97.2434 226.8993 0001832 165.0141 195.1175 15.67691540264248
SALSAT
1 46495U 20068K   25152.40159972  .00007591  00000-0  32910-3 0  9996
2 46495  97.8605 130.0535 0011219 181.4799 178.6405 15.22626127257284
CubeSX-Sirius-HSE
1 47951U 21022V   25152.80393469  .01693589  20765-2  21710-2 0  9996
2 47951  97.4122  66.7098 0006805 178.9904 181.1393 16.07771637232622
CubeSX-HSE
1 47952U 21022W   25152.87581051  .01569061  17035-2  19793-2 0  9991
2 47952  97.4076  67.0647 0007564 179.3292 180.8002 16.07917619232651
GRBAlpha
1 47959U 21022AD  25152.82946100  .01203064  79787-3  20208-2 0  9997
2 47959  97.4032  67.0201 0006398 166.0039 194.1419 16.02972640231460
TUBIN
1 48900U 21059X   25152.77119543  .00059254  00000-0  73496-3 0  9997
2 48900  97.6756 321.3667 0002988 242.2850 117.8103 15.59848716218827
LEDSAT
1 49069U 21073D   25152.80277805  .00089325  00000-0  11065-2 0  9995
2 49069  97.3883 234.0207 0010648 112.4149 247.8236 15.59707959210223
CUTE
1 49263U 21088D   25152.72428382  .00038516  00000-0  77133-3 0  9991
2 49263  97.4506 228.7532 0006668 264.9382  95.1106 15.46627089203214
TeikyoSat 4
1 49396U 21102B   25152.65292881  .00005322  00000-0  35284-3 0  9990
2 49396  97.4103 191.3680 0013250 154.5779 205.6103 15.07615430195356
Z-Sat
1 49399U 21102E   25152.82177912  .00005599  00000-0  30752-3 0  9990
2 49399  97.3799 194.5787 0019641 128.1783 232.1222 15.14342057195801
KOSEN 1
1 49402U 21102H   25152.83811017  .00009449  00000-0  43747-3 0  9993
2 49402  97.3708 197.9510 0017744 105.5944 254.7251 15.20184231196119
HO-113
1 50466U 21131B   25152.84409737  .00000723  00000-0  23971-3 0  9993
2 50466  98.5099 242.2350 0004926 146.6674 213.4826 14.40805203180334
IRIS-A
1 51044U 22002BN  25152.71756472  .02048296  44108-2  17875-2 0  9994
2 51044  97.3051 233.8317 0009518 244.9304 115.0994 16.14221993188652
Foresail-1
1 52766U 22057AL  25151.94950729  .00296305  35327-4  88344-3 0  9990
2 52766  97.6022 302.9532 0006606 255.9555 104.0984 15.92372497168529
SNUGLITE 2
1 52899U 22065F   25152.62597186  .00002409  00000-0  47685-3 0  9995
2 52899  98.1679 294.6774 0008637 132.4992 227.6941 14.63200977155324
UmKA 1 (RS40S)
1 57172U 23091G   25152.88081482  .00007805  00000-0  41719-3 0  9996
2 57172  97.5581 208.3033 0014315   8.4424 351.7046 15.15274621106315
CubeBel-2 (EU11S)
1 57175U 23091K   25152.86468144  .00015008  00000-0  71477-3 0  9999
2 57175  97.5578 209.3869 0012215  17.7944 342.3716 15.19170365106380
VERONIKA
1 58261U 23174F   25152.80638555  .00180780  00000-0  15876-2 0  9997
2 58261  97.4117 238.5258 0003158 115.1436 245.0153 15.68247374 87466
ENSO
1 58470U 23185J   25152.85325841  .00069083  00000-0  10225-2 0  9992
2 58470  97.3731 227.7289 0008359 115.7503 244.4615 15.55020290 83837
EIRSAT-1
1 58472U 23185L   25152.85276879  .00130123  00000-0  12616-2 0  9990
2 58472  97.3688 229.5001 0006120 127.5176 232.6641 15.65928230 83956
SONATE-2
1 59112U 24043Q   25152.61020107  .00043306  00000-0  12481-2 0  9997
2 59112  97.5131 283.6301 0012266 139.6479 220.5676 15.35527569 69118
MO-122
1 60209U 24125G   25152.56120826  .00047455  00000-0  13477-2 0  9995
2 60209  97.2802   4.2705 0019590 161.9243 198.2701 15.35847161 50728
GRBBeta
1 60237U 24128C   25152.35103169  .00005543  00000-0  41859-3 0  9995
2 60237  61.9912 108.2479 0051368  55.6304 304.9630 15.02546811 48960
Curium One
1 60242U 24128H   25152.60030409  .00023562  00000-0  16136-2 0  9995
2 60242  61.9809 105.7874 0051264  51.5900 308.9778 15.04989496 49032
ROBUSTA-3A
1 60243U 24128J   25152.60048704  .00022339  00000-0  15524-2 0  9994
2 60243  61.9878 106.5882 0050005  49.2578 311.2839 15.04523791 49020
CatSat
1 60246U 24125J   25152.51796283  .00029929  00000-0  99374-3 0  9994
2 60246  97.2597   3.5332 0044295 122.0415 238.5140 15.30203292 48758
HYPERVIEW-1G (RS66S)
1 61772U 24199AP  25152.85515759  .00033004  00000-0  96339-3 0  9991
2 61772  97.3545  21.7303 0012766 213.2853 146.7589 15.35180056 75770
AO-123
1 61781U 24199AY  25152.85409846  .00010032  00000-0  36579-3 0  9996
2 61781  97.3556  20.6974 0014646 220.2596 139.7560 15.28261018 75709
ZIMSAT 2
1 61783U 24199BA  25152.86782462  .00054662  00000-0  13553-2 0  9990
2 61783  97.3522  22.2987 0012806 208.8574 151.1966 15.40116492 78968
HADES-R (SO-124)
1 62690U 25009CK  25152.49428153  .00103907  00000-0  36884-2 0  9991
2 62690  97.4088 233.3342 0004646 126.3681 233.7988 15.28608320 20915
HYDRA-T
1 62692U 25009CM  25152.15379249  .00033766  00000-0  12059-2 0  9990
2 62692  97.4085 233.0253 0004343 125.4656 234.6990 15.28764716 20867
JINJUSat 1B
1 63210U 25052A   25152.63284431  .00037070  00000-0  16923-2 0  9992
2 63210  97.4426  46.8567 0004454  18.2620 341.8775 15.20492222 12049
NUSHSAT 1
1 63211U 25052B   25152.69470550  .00040174  00000-0  18218-2 0  9996
2 63211  97.4414  46.9174 0004674  22.9549 337.1894 15.20701585 12054
TEVEL2-4
1 63213U 25052D   25152.64097291  .00038890  00000-0  17791-2 0  9997
2 63213  97.4332  46.7534 0004412  41.2044 318.9524 15.20408648 12047
TEVEL2-5
1 63214U 25052E   25152.70728172  .00038516  00000-0  17628-2 0  9998
2 63214  97.4332  46.8179 0004412  41.5157 318.6413 15.20394869 12056
TEVEL2-6
1 63215U 25052F   25152.64339254  .00039114  00000-0  17922-2 0  9993
2 63215  97.4334  46.7516 0004514  41.3138 318.8438 15.20352160 12049
TEVEL2-1
1 63217U 25052H   25152.65334084  .00038690  00000-0  17838-2 0  9996
2 63217  97.4308  46.7135 0005006  50.1265 310.0409 15.20138599 12045
TEVEL2-2
1 63218U 25052J   25152.65364218  .00038766  00000-0  17873-2 0  9992
2 63218  97.4308  46.7139 0005070  51.1247 309.0439 15.20137816 12044
TEVEL2-3
1 63219U 25052K   25152.65373591  .00038760  00000-0  17873-2 0  9991
2 63219  97.4306  46.7136 0005021  50.5824 309.5855 15.20132802 12047
TEVEL2-8
1 63237U 25052AD  25152.64707974  .00037931  00000-0  18093-2 0  9990
2 63237  97.4370  46.6341 0009699  51.9697 308.2412 15.18936052 12033
TEVEL2-9
1 63238U 25052AE  25152.64912030  .00037494  00000-0  17915-2 0  9998
2 63238  97.4373  46.6334 0009773  51.7200 308.4913 15.18879266 12031
TEVEL2-7
1 63239U 25052AF  25152.65089259  .00037353  00000-0  17866-2 0  9997
2 63239  97.4370  46.6300 0009766  51.8459 308.3654 15.18844637 12036
HYDRA-W
1 63490U 25052BL  25152.46449664  .00093491  00000-0  39460-2 0  9994
2 63490  97.4318  46.6751 0013530  48.9500 311.2903 15.22805078 12025
HADES-ICM
1 63492U 25052BN  25152.67444357  .00095989  00000-0  40935-2 0  9996
2 63492  97.4327  46.8597 0013869  51.4222 308.8255 15.22438074 12055
